Rugby, ND

6:55 PM CDT on August 20, 2017 (GMT -0500)
Rugby Municipal

Weather History for KRUG - December, 2013

Change the Weather History Date:

Wednesday, December 18, 2013

  Actual Average Record
Temperature  
Mean Temperature 12 °F -  
Max Temperature 26 °F 21 °F 45 °F (1979)
Min Temperature -2 °F 0 °F -30 °F (1983)
Degree Days  
Heating Degree Days 53    
Moisture  
Dew Point 12 °F    
Average Humidity 86    
Maximum Humidity 100    
Minimum Humidity 72    
Precipitation  
Precipitation 0.03 in - - ()
Sea Level Pressure  
Sea Level Pressure 29.69 in    
Wind  
Wind Speed 11 mph (WNW)    
Max Wind Speed 25 mph    
Max Gust Speed 26 mph    
Visibility 10 miles    
Events Rain , Snow    
Averages and records for this station are not official NWS values.
T = Trace of Precipitation, MM = Missing Value Source: NWS Daily Summary

Daily Weather History Graph

Daily Weather History Graph

Search for Another Location

Airport or City:

Trip Planner

Search our weather history database for the weather conditions in past years. The results will help you decide how hot, cold, wet, or windy it might be!

Date:

Astronomy

Dec. 18, 2013 Rise Set
Actual Time 8:27 AM CST 4:46 PM CST
Civil Twilight 7:50 AM CST 5:23 PM CST
Nautical Twilight 7:10 AM CST 6:03 PM CST
Astronomical Twilight 6:32 AM CST 6:41 PM CST
Moon 6:27 PM CST (12/18) 9:01 AM CST (12/18)
Length of Visible Light 9h 32m
Length of Day
8h 19m
Full, 98% of the Moon is Illuminated
Dec 18
Full
Dec 25
Last Quarter
Jan 1
New
Jan 7
First Quarter
Jan 15
Full

Hourly Weather History & Observations

Time (CST) Temp. Windchill Dew Point Humidity Pressure Visibility Wind Dir Wind Speed Gust Speed Precip Events Conditions
12:15 AM 19.4 °F 7.9 °F 14.0 °F 80% 29.64 in 10.0 mi South 10.4 mph 19.6 mph N/A   Clear
12:35 AM 19.4 °F 6.6 °F 15.8 °F 86% 29.63 in 10.0 mi South 12.7 mph - N/A   Clear
12:55 AM 19.4 °F 7.9 °F 15.8 °F 86% 29.61 in 10.0 mi South 10.4 mph - N/A   Clear
1:15 AM 19.4 °F 7.9 °F 15.8 °F 86% 29.59 in 10.0 mi South 10.4 mph - N/A   Clear
1:35 AM 19.4 °F 6.6 °F 15.8 °F 86% 29.58 in 10.0 mi South 12.7 mph - N/A   Clear
1:55 AM 19.4 °F 7.9 °F 15.8 °F 86% 29.57 in 10.0 mi South 10.4 mph 17.3 mph N/A   Clear
2:15 AM 19.4 °F 7.2 °F 15.8 °F 86% 29.56 in 10.0 mi South 11.5 mph - N/A   Clear
2:35 AM 19.4 °F 7.9 °F 14.0 °F 80% 29.56 in 10.0 mi South 10.4 mph - N/A   Clear
2:55 AM 17.6 °F 12.3 °F 14.0 °F 86% 29.57 in 10.0 mi SW 3.5 mph - N/A   Clear
3:15 AM 17.6 °F 9.3 °F 14.0 °F 86% 29.56 in 10.0 mi SSW 5.8 mph - N/A   Clear
3:35 AM 17.6 °F 6.4 °F 14.0 °F 86% 29.56 in 10.0 mi SSW 9.2 mph - N/A   Clear
3:55 AM 17.6 °F 5.7 °F 15.8 °F 93% 29.54 in 10.0 mi SSW 10.4 mph - N/A   Clear
4:15 AM 17.6 °F 6.4 °F 15.8 °F 93% 29.53 in 10.0 mi SW 9.2 mph - N/A   Clear
4:35 AM 17.6 °F 6.4 °F 15.8 °F 93% 29.53 in 10.0 mi SW 9.2 mph - N/A   Clear
4:55 AM 15.8 °F 3.4 °F 14.0 °F 93% 29.54 in 10.0 mi WSW 10.4 mph - N/A   Clear
5:15 AM 15.8 °F 3.4 °F 14.0 °F 93% 29.53 in 10.0 mi WSW 10.4 mph - N/A   Clear
5:35 AM 15.8 °F 3.4 °F 14.0 °F 93% 29.53 in 10.0 mi WSW 10.4 mph - N/A   Clear
5:55 AM 14.0 °F 1.2 °F 12.2 °F 93% 29.52 in 10.0 mi WSW 10.4 mph - N/A   Clear
6:15 AM 14.0 °F 2.0 °F 12.2 °F 93% 29.52 in 10.0 mi West 9.2 mph - N/A   Clear
6:35 AM 14.0 °F 1.2 °F 12.2 °F 93% 29.51 in 10.0 mi West 10.4 mph - N/A   Clear
6:55 AM 14.0 °F 2.0 °F 12.2 °F 93% 29.51 in 10.0 mi West 9.2 mph - N/A   Clear
7:15 AM 14.0 °F 1.2 °F 14.0 °F 100% 29.52 in 10.0 mi West 10.4 mph - N/A   Clear
7:35 AM 14.0 °F 3.9 °F 10.4 °F 86% 29.51 in 10.0 mi West 6.9 mph - N/A   Clear
7:55 AM 12.2 °F 0.7 °F 10.4 °F 92% 29.52 in 10.0 mi West 8.1 mph - N/A   Clear
8:15 AM 10.4 °F -0.4 °F 10.4 °F 100% 29.52 in 10.0 mi NW 6.9 mph - N/A   Clear
8:35 AM 12.2 °F 0.7 °F 10.4 °F 92% 29.53 in 10.0 mi West 8.1 mph - N/A   Clear
8:55 AM 10.4 °F -0.4 °F 10.4 °F 100% 29.54 in 9.0 mi WSW 6.9 mph - N/A   Scattered Clouds
9:15 AM 12.2 °F 0.7 °F 10.4 °F 92% 29.56 in 10.0 mi West 8.1 mph - N/A   Scattered Clouds
9:35 AM 14.0 °F 3.9 °F 12.2 °F 93% 29.57 in 10.0 mi West 6.9 mph - N/A   Scattered Clouds
9:55 AM 15.8 °F 6.1 °F 14.0 °F 93% 29.55 in 10.0 mi WSW 6.9 mph - N/A   Mostly Cloudy
10:15 AM 17.6 °F 7.3 °F 15.8 °F 93% 29.56 in 10.0 mi West 8.1 mph - N/A   Scattered Clouds
10:35 AM 17.6 °F 8.2 °F 15.8 °F 93% 29.58 in 10.0 mi West 6.9 mph - N/A   Mostly Cloudy
10:55 AM 19.4 °F 9.5 °F 17.6 °F 93% 29.58 in 10.0 mi WNW 8.1 mph - N/A   Scattered Clouds
11:15 AM 19.4 °F 11.5 °F 17.6 °F 93% 29.57 in 10.0 mi WNW 5.8 mph - N/A   Clear
11:35 AM 19.4 °F 9.5 °F 17.6 °F 93% 29.57 in 10.0 mi WNW 8.1 mph - N/A   Clear
11:55 AM 19.4 °F 7.2 °F 17.6 °F 93% 29.58 in 10.0 mi WNW 11.5 mph - N/A   Clear
12:15 PM 21.2 °F 10.9 °F 17.6 °F 86% 29.60 in 10.0 mi WNW 9.2 mph - N/A   Clear
12:35 PM 23.0 °F 11.7 °F 17.6 °F 80% 29.60 in 10.0 mi NW 11.5 mph - N/A   Clear
12:55 PM 23.0 °F 11.7 °F 17.6 °F 80% 29.59 in 10.0 mi NW 11.5 mph - N/A   Clear
1:15 PM 23.0 °F 11.7 °F 17.6 °F 80% 29.59 in 10.0 mi NNW 11.5 mph - N/A   Clear
1:35 PM 23.0 °F 13.1 °F 17.6 °F 80% 29.59 in 10.0 mi NNW 9.2 mph - N/A   Clear
1:55 PM 23.0 °F 13.9 °F 19.4 °F 86% 29.61 in 10.0 mi NNW 8.1 mph - N/A   Scattered Clouds
2:15 PM 24.8 °F 16.1 °F 21.2 °F 86% 29.62 in 10.0 mi NW 8.1 mph - N/A   Mostly Cloudy
2:35 PM 26.6 °F 16.8 °F 23.0 °F 86% 29.63 in 10.0 mi NW 10.4 mph - N/A   Overcast
2:55 PM 26.6 °F 13.8 °F 23.0 °F 86% 29.65 in 10.0 mi WNW 17.3 mph - N/A   Overcast
3:15 PM 26.6 °F 13.4 °F 23.0 °F 86% 29.66 in 10.0 mi NW 18.4 mph - N/A   Overcast
3:35 PM 24.8 °F 10.0 °F 23.0 °F 93% 29.68 in 9.0 mi NW 21.9 mph - N/A   Overcast
3:55 PM 24.8 °F 10.7 °F 23.0 °F 93% 29.70 in 1.5 mi NW 19.6 mph - 0.02 in Snow Light Snow
4:15 PM 24.8 °F 11.5 °F 21.2 °F 86% 29.72 in 8.0 mi NNW 17.3 mph - 0.01 in Rain Light Freezing Rain
4:35 PM 24.8 °F 11.1 °F 19.4 °F 80% 29.74 in 10.0 mi NNW 18.4 mph - 0.01 in   Overcast
4:55 PM 23.0 °F 10.1 °F 19.4 °F 86% 29.75 in 10.0 mi NNW 15.0 mph - 0.01 in   Overcast
5:15 PM 21.2 °F 6.8 °F 17.6 °F 86% 29.77 in 10.0 mi NW 17.3 mph - N/A   Mostly Cloudy
5:35 PM 21.2 °F 6.0 °F 15.8 °F 80% 29.80 in 10.0 mi North 19.6 mph 26.5 mph N/A   Overcast
5:55 PM 19.4 °F 6.0 °F 15.8 °F 86% 29.82 in 10.0 mi North 13.8 mph - N/A   Overcast
6:15 PM 17.6 °F 2.2 °F 14.0 °F 86% 29.83 in 10.0 mi North 17.3 mph - N/A   Overcast
6:35 PM 15.8 °F -0.2 °F 10.4 °F 79% 29.85 in 10.0 mi NNW 17.3 mph 23.0 mph N/A Snow Light Snow
6:55 PM 14.0 °F -4.3 °F 8.6 °F 79% 29.87 in 10.0 mi North 21.9 mph 26.5 mph N/A   Overcast
7:15 PM 10.4 °F -10.3 °F 5.0 °F 79% 29.88 in 10.0 mi North 25.3 mph - N/A   Overcast
7:35 PM 10.4 °F -7.2 °F 5.0 °F 79% 29.90 in 10.0 mi North 17.3 mph - N/A   Overcast
7:55 PM 8.6 °F -11.0 °F 3.2 °F 79% 29.92 in 10.0 mi North 20.7 mph - N/A   Overcast
8:15 PM 8.6 °F -10.5 °F 1.4 °F 73% 29.93 in 10.0 mi North 19.6 mph 24.2 mph N/A   Overcast
8:35 PM 6.8 °F -9.3 °F -0.4 °F 72% 29.95 in 10.0 mi North 12.7 mph - N/A   Overcast
8:55 PM 5.0 °F -13.6 °F -0.4 °F 78% 29.97 in 10.0 mi North 16.1 mph - N/A   Partly Cloudy
9:15 PM 5.0 °F -13.0 °F -2.2 °F 72% 29.98 in 10.0 mi North 15.0 mph - N/A   Clear
9:35 PM 3.2 °F -12.2 °F -2.2 °F 78% 29.99 in 10.0 mi North 10.4 mph - N/A   Clear
9:55 PM 1.4 °F -14.5 °F -2.2 °F 85% 30.00 in 10.0 mi North 10.4 mph - N/A   Clear
10:15 PM -0.4 °F -15.7 °F -4.0 °F 85% 30.02 in 10.0 mi North 9.2 mph - N/A   Clear
10:35 PM -0.4 °F -15.7 °F -4.0 °F 85% 30.02 in 10.0 mi North 9.2 mph - N/A   Clear
10:55 PM -0.4 °F -16.7 °F -5.8 °F 78% 30.04 in 10.0 mi North 10.4 mph - N/A   Clear
11:15 PM -0.4 °F -15.7 °F -5.8 °F 78% 30.05 in 10.0 mi North 9.2 mph - N/A   Clear
11:35 PM -2.2 °F -16.8 °F -7.6 °F 78% 30.06 in 10.0 mi North 8.1 mph - N/A   Clear
11:55 PM -0.4 °F -17.6 °F -5.8 °F 78% 30.07 in 10.0 mi North 11.5 mph - N/A   Clear